This demonstration page uses our WeatherBlox Daily Observations layout. Learn more.

39.08367, -84.50855

Hourly Observations for October 30, 2019

Temp ( °F °C ) Dew Point ( °F °C ) Humidity (%) Winds ( mph kmh ) Pressure ( in mb ) Visibility ( mi km ) Precip ( " mm )
12:07 am 00:07 Mostly Cloudy with Mist and Fog 46 7.8 46 7.8 100 100 NE 5 7 30.21 1023 1 1.60934 0 0
12:14 am 00:14 Mostly Cloudy with Mist and Fog 46 7.8 46 7.8 100 100 NE 5 7 30.21 1023 0.75 1.207005 0 0
12:17 am 00:17 Partly Cloudy with Mist and Fog 46 7.8 46 7.8 100 100 ENE 5 7 30.21 1023 1.25 2.011675 0 0
12:53 am 00:53 Clear with Mist and Fog 46 7.8 45 7.2 96 96 Calm 30.2 1023 5 8.0467 0 0
1:32 am 01:32 Clear with Mist and Fog 47 8.3 46 7.8 97 97 ENE 3 6 30.21 1023 2 3.21868 0 0
1:41 am 01:41 Clear with Mist and Fog 47 8.3 46 7.8 97 97 E 3 6 30.21 1023 4 6.43736 0 0
1:53 am 01:53 Mostly Clear with Mist and Fog 47 8.3 47 8.3 100 100 Calm 30.2 1023 3 4.82802 0 0
2:53 am 02:53 Mostly Cloudy with Mist and Fog 48 8.9 47 8.3 96 96 ENE 3 6 30.19 1022 5 8.0467 0 0
3:53 am 03:53 Cloudy with Mist and Fog 50 10 49 9.4 96 96 Calm 30.19 1022 6 9.65604 0 0
4:53 am 04:53 Cloudy 51 10.6 50 10 96 96 NE 5 7 30.17 1022 7 11.26538 0 0
5:53 am 05:53 Cloudy 52 11.1 50 10 93 93 NE 5 7 30.17 1022 7 11.26538 0 0
6:53 am 06:53 Cloudy 52 11.1 50 10 93 93 NE 6 9 30.17 1022 8 12.87472 0 0
7:53 am 07:53 Cloudy 53 11.7 51 10.6 93 93 ENE 3 6 30.16 1022 9 14.48406 0 0
8:53 am 08:53 Cloudy 53 11.7 51 10.6 93 93 ENE 6 9 30.16 1021 8 12.87472 0.001 0.001
9:53 am 09:53 Mostly Cloudy with Light Rain 54 12.2 51 10.6 90 90 NE 5 7 30.14 1021 8 12.87472 0.001 0.001
10:40 am 10:40 Cloudy with Light Rain 54 12.2 51 10.6 90 90 N 8 13 30.09 1019 5 8.0467 0.04 1.016
10:53 am 10:53 Cloudy with Light Rain 54 12.2 52 11.1 93 93 ENE 6 9 30.09 1019 5 8.0467 0.05 1.27
11:53 am 11:53 Cloudy with Light Rain 55 12.8 52 11.1 90 90 Calm 30.08 1019 6 9.65604 0.03 0.762
12:53 pm 12:53 Cloudy with Light Rain 56 13.3 54 12.2 93 93 NNE 6 9 30.05 1018 7 11.26538 0.02 0.508
1:04 pm 13:04 Cloudy with Light Rain 56 13.3 54 12.2 93 93 N 5 7 30.04 1017 6 9.65604 0.001 0.001
1:39 pm 13:39 Cloudy 56 13.3 54 12.2 93 93 N 5 7 30.03 1017 7 11.26538 0.001 0.001
1:53 pm 13:53 Cloudy 57 13.9 54 12.2 90 90 N 6 9 30.02 1017 8 12.87472 0.001 0.001
2:53 pm 14:53 Cloudy with Light Rain 57 13.9 55 12.8 93 93 NNE 7 11 29.98 1015 7 11.26538 0.01 0.254
3:22 pm 15:22 Cloudy with Light Rain 57 13.9 55 12.8 93 93 ENE 7 11 29.96 1015 6 9.65604 0.001 0.001
3:53 pm 15:53 Cloudy with Rain 57 13.9 55 12.8 93 93 NE 6 9 29.96 1015 3 4.82802 0.05 1.27
4:03 pm 16:03 Cloudy with Rain 57 13.9 56 13.3 96 96 NE 6 9 29.96 1015 2.5 4.02335 0.03 0.762
4:20 pm 16:20 Cloudy with Heavy Rain 56 13.3 56 13.3 100 100 N 3 6 29.96 1015 1.5 2.41401 0.1 2.54
4:53 pm 16:53 Cloudy with Heavy Rain 56 13.3 56 13.3 100 100 ENE 3 6 29.93 1014 1.25 2.011675 0.36 9.144
5:11 pm 17:11 Cloudy with Heavy Rain 57 13.9 56 13.3 96 96 Calm 29.93 1014 2 3.21868 0.1 2.54
5:24 pm 17:24 Cloudy with Heavy Rain 57 13.9 56 13.3 96 96 E 5 7 29.92 1013 1.25 2.011675 0.19 4.826
5:31 pm 17:31 Cloudy with Heavy Rain 57 13.9 57 13.9 100 100 E 5 7 29.91 1013 1.5 2.41401 0.22 5.588
5:39 pm 17:39 Cloudy with Heavy Rain 57 13.9 57 13.9 100 100 Calm 29.91 1013 2 3.21868 0.26 6.604
5:46 pm 17:46 Cloudy with Rain 57 13.9 57 13.9 100 100 Calm 29.91 1013 1.75 2.816345 0.29 7.366
5:53 pm 17:53 Cloudy with Rain 57 13.9 57 13.9 100 100 Calm 29.9 1013 2 3.21868 0.32 8.128
6:15 pm 18:15 Cloudy with Light Rain 58 14.4 57 13.9 97 97 Calm 29.9 1012 5 8.0467 0.03 0.762
6:53 pm 18:53 Cloudy with Light Rain 58 14.4 57 13.9 97 97 Calm 29.89 1012 6 9.65604 0.05 1.27
7:01 pm 19:01 Cloudy with Light Rain 57 13.9 57 13.9 100 100 Calm 29.89 1012 7 11.26538 0.001 0.001
7:16 pm 19:16 Cloudy with Light Rain 57 13.9 56 13.3 96 96 N 3 6 29.89 1012 7 11.26538 0.001 0.001
7:53 pm 19:53 Cloudy with Mist and Fog 57 13.9 57 13.9 100 100 Calm 29.88 1012 6 9.65604 0.01 0.254
8:53 pm 20:53 Cloudy with Light Rain 58 14.4 57 13.9 97 97 Calm 29.87 1011 6 9.65604 0.001 0.001
9:00 pm 21:00 Cloudy 58 14.4 57 13.9 97 97 SSW 3 6 29.88 1012 7 11.26538 0.001 0.001
9:53 pm 21:53 Cloudy 58 14.4 58 14.4 100 100 Calm 29.86 1011 8 12.87472 0.001 0.001
10:53 pm 22:53 Cloudy with Mist and Fog 59 15 59 15 100 100 WNW 3 6 29.87 1011 4 6.43736 0 0
11:13 pm 23:13 Cloudy with Mist and Fog 58 14.4 58 14.4 100 100 Calm 29.87 1011 2 3.21868 0 0
11:22 pm 23:22 Cloudy with Mist and Fog 58 14.4 58 14.4 100 100 Calm 29.86 1011 2 3.21868 0 0
11:44 pm 23:44 Cloudy with Mist and Fog 58 14.4 58 14.4 100 100 Calm 29.86 1011 1.5 2.41401 0 0
11:53 pm 23:53 Cloudy with Mist and Fog 58 14.4 58 14.4 100 100 Calm 29.86 1011 1.25 2.011675 0 0

Powered by AerisWeather